Regional Weather Roundup
Issued by NWS

Home | Current Version | Previous Version | Text Only | Print | Product List | Glossary On
Versions: 1 2 3 4 5 6 7 8 9 10 11 12 13 14 15 16 17 18 19 20 21 22 23 24 25 26 27 28 29 30 31 32 33 34 35 36 37 38 39 40 41 42 43 44 45 46 47 48 49 50
000
ASPQ40 PGUM 180112
RWRPQ
WEATHER ROUNDUP FOR THE MARIANAS AND MICRONESIA
NATIONAL WEATHER SERVICE TIYAN GU
1100 AM CHST WED OCT 18 2017

GUZ001>004-180200-
MARIANA ISLANDS-

CITY           SKY/WX    TMP DP  RH WIND       PRES   REMARKS
GUAM AIRPORT   HVY RAIN  75  75 100 S9        29.84S VSB 1/2
ANDERSEN AFB   LGT RAIN  75  73  94 S14       29.83S
ROTA AIRPORT   LGT RAIN  77  75  94 S9G20     29.80S
TINIAN AP      PTSUNNY   79  75  89 SW17G28   29.75F
SAIPAN AP      CLOUDY    79  79 100 SW25G37   29.76F

$$

PMZ161-180200-
REPUBLIC OF PALAU-

CITY           SKY/WX    TMP DP  RH WIND       PRES   REMARKS
KOROR AP       CLOUDY    86  75  70 SW15G26   29.65S HX  95
KOROR WSO      CLOUDY    88  77  70 SW15      29.67S HX 100

$$

PMZ171>174-180200-
FEDERATED STATES OF MICRONESIA-

CITY           SKY/WX    TMP DP  RH WIND       PRES   REMARKS
YAP AIRPORT    LGT RAIN  81  77  89 S12       29.69R
CHUUK AP       LGT RAIN  84  81  89 N10       29.80F HX  98
POHNPEI AP     CLOUDY    84  79  84 NW9       29.76F HX  96
POHNPEI WSO    LGT RAIN  84  79  84 W5        29.78F HX  96
KOSRAE AP      NOT AVBL

$$

PMZ181-180200-
REPUBLIC OF THE MARSHALL ISLANDS-

CITY           SKY/WX    TMP DP  RH WIND       PRES   REMARKS
KWAJALEIN AP   SUNNY     86  75  70 SW7       29.76F HX  95
MAJURO AP      NOT AVBL
MAJURO WSO     LGT RAIN  81  77  89 SW9       29.74F

$$




USA.gov is the U.S. government's official web portal to all federal, state and local government web resources and services.